Regional Weather Roundup
Issued by NWS

Home | Current Version | Previous Version | Text Only | Print | Product List | Glossary Off
Versions: 1 2 3 4 5 6 7 8 9 10 11 12 13 14 15 16 17 18 19 20 21 22 23 24 25 26 27 28 29 30 31 32 33 34 35 36 37 38 39 40 41 42 43 44 45 46 47 48 49 50

000
ASUS43 KLSX 130707
RWRMO

WEATHER SUMMARY FOR MISSOURI
NATIONAL WEATHER SERVICE SPRINGFIELD MO
100 AM CST WED DEC 13 2017

NOTE: "FAIR" INDICATES FEW OR NO CLOUDS BELOW 12,000 FEET WITH NO
       SIGNIFICANT WEATHER AND/OR OBSTRUCTIONS TO VISIBILITY.
       CURRENT SKY AND/OR WEATHER CONDITIONS ARE NOT AVAILABLE FOR
       CHILLICOTHE AND FARMINGTON.

MOZ001>031-035>038-043-044-053-054-130800-
...NORTHERN AND WESTERN MISSOURI...

CITY           SKY/WX    TMP DP  RH WIND       PRES   REMARKS
KANSAS CTY INT CLEAR     37  27  67 SW13      29.85F WCI  29
KANSAS C DTWN  CLEAR     38  27  64 SW7       29.88F
LEE`S SUMMIT   CLEAR     35  27  72 S12       29.88F WCI  27
ST JOSEPH      CLEAR     32  27  81 S3        29.84F
CHILLICOTHE      N/A     30  21  69 S9        29.86F WCI  22
KIRKSVILLE     CLOUDY    30  25  81 SW12      29.87F WCI  20

$$
MOZ066>068-077>081-088>096-101>105-130800-
...SOUTHWEST MISSOURI...

CITY           SKY/WX    TMP DP  RH WIND       PRES   REMARKS
SPRINGFIELD    CLOUDY    29  13  51 S8        29.99F WCI  21
JOPLIN         CLEAR     32  22  66 S9        30.01F WCI  24
BRANSON        PTCLDY    32  10  40 CALM      30.04F

$$
MOZ032>034-039>042-045>050-055>058-069>072-130800-
...CENTRAL MISSOURI...

CITY           SKY/WX    TMP DP  RH WIND       PRES   REMARKS
COLUMBIA       CLOUDY    25  13  60 S9        29.95F WCI  15
JEFFERSON CITY CLOUDY    30  12  47 E5        29.99F WCI  25
ROLLA          CLOUDY    25  10  53 SW10      29.99F WCI  15
SEDALIA        CLEAR     34  22  61 SW15      29.94F WCI  24
WARRENSBURG    CLEAR     32  23  69 S9        29.91F WCI  24
OSAGE BEACH    CLEAR     26  14  60 S5        29.99F WCI  20

$$
MOZ051-052-059>065-130800-
...EAST CENTRAL MISSOURI...

CITY           SKY/WX    TMP DP  RH WIND       PRES   REMARKS
ST LOUIS INTL  CLOUDY    28   7  41 SW8       29.99F WCI  20
SPIRIT OF STL  CLEAR     20  13  74 CALM      29.99F
ST CHARLES     CLOUDY    20   8  60 CALM      29.99F

$$
MOZ072>076-082>087-097>100-106>115-130800-
...SOUTH CENTRAL AND SOUTHEAST MISSOURI...

CITY           SKY/WX    TMP DP  RH WIND       PRES   REMARKS
CAPE GIRARDEAU PTCLDY    20  15  81 CALM      30.07F
FARMINGTON     CLOUDY    22  10  60 SE6       30.02F WCI  14
POPLAR BLUFF   PTCLDY    24  18  77 SW3       30.09F
WEST PLAINS    CLOUDY    24  11  57 SW3       30.05F

$$



USA.gov is the U.S. government's official web portal to all federal, state and local government web resources and services.